15 daagse weersverwachting Bordeaux (FR)

  • Overzicht
  • Per uur
  • 15 dagen
  • Extra
  • Vergelijk
  • Kaarten
  • Dagkaart
  • Meer »
  • Info
  • Statistieken
  • Directe link
    Temp 6h Neerslag Wind  
 08:31     17:21    Daglengte: 8:50 Vandaag
19:00
 
6
 08:32     17:21    Daglengte: 8:49 Morgen
01:00
3.6 mm
3
07:00
3.8 mm
3
13:00
10°
11.7 mm
6
19:00
12°
31.7 mm
7
 08:33     17:21    Daglengte: 8:48 Vrijdag 13 Dec
01:00
13°
24.8 mm
9
07:00
13°
28.1 mm
11
13:00
12°
33.2 mm
10
19:00
12°
23.3 mm
7
 08:34     17:21    Daglengte: 8:47 Zaterdag 14 Dec
01:00
13°
35.9 mm
9
07:00
13°
36.8 mm
8
13:00
13°
54.8 mm
6
Locatie info
Region: Nouvelle-Aquitaine
Latitude: 44.8366°N
Longitude: -0.5810°E
20 masl
Postcode: 33000
Temp/Neerslag /Baro Onweer/Dauwpunt
    Temp Baro 1h Neerslag Dauwpunt Wind UV Bewolking  
 08:31     17:21    Daglengte: 8:50 Vandaag
19:00
Voelt als: 5.8°
1015.9 hPa
48%
6.6°
6
Windvlaag: 2.8 km/h
71%
20:00
Voelt als: 5.8°
1016.0 hPa 2.0 mm
82%
5.2°
6
Windvlaag: 1.4 km/h
23%
21:00
Voelt als: 5.5°
1016.2 hPa 1.6 mm
82%
4.7°
6
Windvlaag: 0.8 km/h
46%
22:00
Voelt als: 5.5°
1016.2 hPa
82%
4.7°
5
Windvlaag: 0.4 km/h
18%
23:00
Voelt als: 5.5°
1016.2 hPa
81%
3.9°
5
Windvlaag: 0.9 km/h
38%
 08:32     17:21    Daglengte: 8:49 Morgen
00:00
Voelt als: 5.6°
1016.1 hPa
82%
3.5°
4
Windvlaag: 0.7 km/h
30%
01:00
Voelt als: 5.6°
1016.0 hPa
77%
3.7°
3
Windvlaag: 0.4 km/h
36%
02:00
Voelt als: 5.7°
1015.5 hPa
76%
3.9°
3
Windvlaag: 0 km/h
71%
03:00
Voelt als: 5.8°
1015.2 hPa
27%
4.1°
3
Windvlaag: 1.3 km/h
58%
04:00
Voelt als: 5.9°
1014.5 hPa
18%
4.9°
3
Windvlaag: 2.2 km/h
83%
05:00
Voelt als: 5.9°
1013.7 hPa
32%
5.7°
3
Windvlaag: 2.5 km/h
87%
06:00
Voelt als: 6.1°
1013.1 hPa 1.8 mm
82%
6.3°
3
Windvlaag: 2.6 km/h
88%
07:00
Voelt als: 6.0°
1012.5 hPa 2.0 mm
82%
6.9°
3
Windvlaag: 2.8 km/h
90%
08:00
Voelt als: 6.2°
1012.0 hPa 2.3 mm
82%
7.3°
3
Windvlaag: 2.9 km/h
85%
09:00
Voelt als: 6.2°
1011.4 hPa 2.5 mm
82%
7.4°
4
Windvlaag: 3 km/h
84%
10:00
Voelt als: 6.5°
1010.6 hPa 2.6 mm
82%
7.5°
4
Windvlaag: 2.9 km/h
73%
11:00
10°
Voelt als: 7.3°
1009.7 hPa
82%
8.5°
4
Windvlaag: 3.5 km/h
69%
12:00
10°
1008.3 hPa 1.9 mm
82%
8.8°
5
Windvlaag: 4.1 km/h
88%
13:00
10°
1006.4 hPa 2.4 mm
82%
8.8°
6
Windvlaag: 4.5 km/h
91%
14:00
11°
1004.8 hPa 3.4 mm
82%
8.7°
7
Windvlaag: 4.4 km/h
91%
15:00
11°
1002.6 hPa 4.2 mm
82%
8.7°
8
Windvlaag: 5.4 km/h
91%
16:00
10°
1000.5 hPa 5.2 mm
82%
8.4°
9
Windvlaag: 6.5 km/h
91%
17:00
10°
998.9 hPa 6.3 mm
82%
8.8°
9
Windvlaag: 6 km/h
91%
18:00
11°
998.0 hPa 7.2 mm
82%
9.9°
8
Windvlaag: 6.4 km/h
90%
19:00
12°
997.8 hPa 5.4 mm
82%
11.0°
7
Windvlaag: 1.4 km/h
89%
20:00
13°
997.8 hPa 4.0 mm
82%
11.1°
7
Windvlaag: 0.7 km/h
85%
21:00
13°
997.9 hPa 3.9 mm
82%
10.8°
7
Windvlaag: 0.8 km/h
82%
22:00
13°
997.6 hPa 4.0 mm
82%
11.3°
7
Windvlaag: 0.9 km/h
90%
23:00
13°
997.3 hPa 4.3 mm
82%
11.0°
8
Windvlaag: 2 km/h
88%
 08:33     17:21    Daglengte: 8:48 Vrijdag 13 Dec
00:00
13°
997.0 hPa 4.2 mm
82%
10.8°
8
Windvlaag: 2.1 km/h
87%
01:00
13°
996.4 hPa 4.4 mm
82%
11.2°
9
Windvlaag: 2.4 km/h
90%
02:00
13°
995.7 hPa 4.2 mm
82%
11.2°
10
Windvlaag: 1.7 km/h
88%
03:00
13°
995.1 hPa 4.3 mm
82%
11.4°
10
Windvlaag: 1.9 km/h
91%
04:00
14°
994.3 hPa 4.6 mm
82%
11.6°
10
Windvlaag: 2 km/h
91%
05:00
14°
993.9 hPa 5.6 mm
82%
11.5°
12
Windvlaag: 2 km/h
90%
06:00
13°
994.3 hPa 4.9 mm
82%
11.0°
13
Windvlaag: 2.1 km/h
90%
07:00
13°
995.1 hPa 4.5 mm
82%
10.4°
11
Windvlaag: 2.1 km/h
78%
08:00
13°
996.2 hPa 4.5 mm
82%
9.1°
12
Windvlaag: 0.8 km/h
73%
09:00
12°
997.4 hPa 5.7 mm
82%
8.7°
10
Windvlaag: 0.2 km/h
78%
10:00
12°
998.8 hPa 6.3 mm
82%
8.1°
10
Windvlaag: -0.1 km/h
75%
11:00
12°
1000.2 hPa 4.8 mm
82%
8.1°
11
Windvlaag: -0.3 km/h
83%
12:00
12°
1001.4 hPa 6.8 mm
82%
7.6°
11
Windvlaag: -0.3 km/h
79%
13:00
12°
1001.8 hPa 5.0 mm
82%
6.2°
10
Windvlaag: -0.1 km/h
80%
14:00
12°
1001.9 hPa 7.0 mm
82%
5.9°
10
Windvlaag: 0.6 km/h
81%
15:00
12°
1002.3 hPa
82%
6.1°
9
Windvlaag: 0.5 km/h
77%
16:00
13°
1003.0 hPa
100%
5.2°
9
Windvlaag: -0.3 km/h
88%
17:00
12°
1003.4 hPa 5.1 mm
100%
6.7°
7
Windvlaag: 0.4 km/h
94%
18:00
12°
1003.8 hPa 5.6 mm
100%
8.7°
7
Windvlaag: 1.4 km/h
94%
19:00
12°
1003.8 hPa 5.6 mm
100%
10.1°
7
Windvlaag: 1.3 km/h
100%
20:00
13°
1003.9 hPa 5.5 mm
100%
11.2°
7
Windvlaag: 1.1 km/h
100%
21:00
13°
1004.4 hPa 7.5 mm
100%
11.9°
9
Windvlaag: 2.1 km/h
97%
22:00
13°
1004.9 hPa 5.4 mm
100%
11.7°
9
Windvlaag: 2.3 km/h
100%
23:00
13°
1005.2 hPa 5.6 mm
100%
11.4°
9
Windvlaag: 2.5 km/h
100%
 08:34     17:21    Daglengte: 8:47 Zaterdag 14 Dec
00:00
13°
1005.7 hPa 5.7 mm
100%
11.3°
9
Windvlaag: 2.4 km/h
100%
01:00
13°
1005.8 hPa 6.1 mm
100%
11.7°
9
Windvlaag: 2.3 km/h
100%
02:00
13°
1006.1 hPa 6.2 mm
100%
11.8°
9
Windvlaag: 2 km/h
100%
03:00
13°
1006.7 hPa 6.3 mm
100%
11.7°
9
Windvlaag: 1.8 km/h
94%
04:00
13°
1006.9 hPa 6.3 mm
100%
11.6°
9
Windvlaag: 1.9 km/h
99%
05:00
14°
1007.0 hPa 5.8 mm
100%
11.5°
10
Windvlaag: 2.2 km/h
95%
06:00
13°
1007.3 hPa 5.8 mm
100%
11.6°
9
Windvlaag: 2.7 km/h
94%
07:00
13°
1008.0 hPa 6.5 mm
100%
11.7°
8
Windvlaag: 2.6 km/h
81%
08:00
13°
1008.6 hPa 8.2 mm
100%
11.7°
8
Windvlaag: 0.5 km/h
89%
09:00
13°
1009.2 hPa 8.0 mm
100%
11.6°
7
Windvlaag: 0.6 km/h
84%
10:00
13°
1009.8 hPa 8.2 mm
100%
11.6°
7
Windvlaag: 4.8 km/h
86%
11:00
13°
1010.4 hPa 8.2 mm
100%
11.7°
7
Windvlaag: 4.5 km/h
92%
12:00
13°
1010.9 hPa 8.6 mm
100%
11.9°
7
Windvlaag: 5.6 km/h
94%
13:00
13°
1010.9 hPa 13.8 mm
92%
12.1°
6
Windvlaag: 2.9 km/h
98%
14:00
14°
1010.5 hPa 13.1 mm
100%
12.0°
6
Windvlaag: 16.5 km/h
98%
15:00
13°
1010.4 hPa 14.3 mm
100%
11.7°
6
Windvlaag: 16.4 km/h
99%
16:00
13°
1010.6 hPa 15.3 mm
100%
11.5°
6
Windvlaag: 16.3 km/h
94%
17:00
13°
1010.6 hPa 14.0 mm
100%
11.4°
6
Windvlaag: 13.2 km/h
98%
18:00
13°
1010.7 hPa 13.1 mm
100%
11.3°
6
Windvlaag: 13 km/h
88%
Temp/Neerslag /Baro Onweer/Dauwpunt
    Temp Baro Neerslag Dauwpunt Wind Bewolking  
 08:31     17:21    Daglengte: 8:50 Vandaag
19:00
Voelt als: 5.8°
1015.9 hPa   6.6°
6
71%
22:00
Voelt als: 5.5°
1016.2 hPa 3.6 mm 4.7°
5
18%
 08:32     17:21    Daglengte: 8:49 Morgen
01:00
Voelt als: 5.6°
1016.0 hPa   3.7°
3
36%
04:00
Voelt als: 5.9°
1014.5 hPa   4.9°
3
83%
07:00
Voelt als: 6.0°
1012.5 hPa 3.8 mm 6.9°
3
90%
10:00
Voelt als: 6.5°
1010.6 hPa 7.4 mm 7.5°
4
73%
13:00
10°
1006.4 hPa 4.3 mm 8.8°
6
91%
16:00
10°
1000.5 hPa 12.8 mm 8.4°
9
91%
19:00
12°
997.8 hPa 18.9 mm 11.0°
7
89%
22:00
13°
997.6 hPa 11.9 mm 11.3°
7
90%
 08:33     17:21    Daglengte: 8:48 Vrijdag 13 Dec
01:00
13°
996.4 hPa 12.9 mm 11.2°
9
90%
04:00
14°
994.3 hPa 13.1 mm 11.6°
10
91%
07:00
13°
995.1 hPa 15.0 mm 10.4°
11
78%
10:00
12°
998.8 hPa 16.5 mm 8.1°
10
75%
13:00
12°
1001.8 hPa 16.6 mm 6.2°
10
80%
16:00
13°
1003.0 hPa 7.0 mm 5.2°
9
88%
19:00
12°
1003.8 hPa 16.3 mm 10.1°
7
100%
22:00
13°
1004.9 hPa 18.5 mm 11.7°
9
100%
 08:34     17:21    Daglengte: 8:47 Zaterdag 14 Dec
01:00
13°
1005.8 hPa 17.4 mm 11.7°
9
100%
04:00
13°
1006.9 hPa 18.7 mm 11.6°
9
99%
07:00
13°
1008.0 hPa 18.1 mm 11.7°
8
81%
10:00
13°
1009.8 hPa 24.3 mm 11.6°
7
86%
13:00
13°
1010.9 hPa 30.5 mm 12.1°
6
98%
16:00
13°
1010.6 hPa 42.7 mm 11.5°
6
94%
19:00
13°
1010.8 hPa 40.3 mm 11.2°
5
91%
22:00
12°
1011.3 hPa 41.2 mm 9.0°
4
88%
 08:34     17:21    Daglengte: 8:47 Zondag 15 Dec
01:00
12°
1010.8 hPa 41.2 mm 8.1°
4
87%
04:00
12°
1009.7 hPa 41.3 mm 6.9°
5
44%
07:00
12°
1008.7 hPa 42.6 mm 6.0°
6
2%
10:00
13°
1008.9 hPa 44.2 mm 6.8°
5
8%
13:00
15°
1009.0 hPa 44.2 mm 7.8°
5
13%
16:00
13°
1009.1 hPa 44.7 mm 7.8°
4
42%
19:00
11°
1009.2 hPa 44.8 mm 7.5°
3
71%
22:00
11°
1009.1 hPa 45.9 mm 6.5°
3
79%
 08:35     17:22    Daglengte: 8:47 Maandag 16 Dec
01:00
11°
1008.9 hPa 46.9 mm 5.1°
3
87%
04:00
11°
1007.1 hPa 46.9 mm 6.3°
3
89%
07:00
10°
1005.4 hPa 46.9 mm 7.5°
4
91%
10:00
12°
1003.1 hPa 47.0 mm 8.3°
4
91%
13:00
13°
1000.7 hPa 47.0 mm 9.1°
5
92%
16:00
13°
999.6 hPa 47.0 mm 8.7°
4
91%
19:00
12°
998.7 hPa 47.1 mm 8.3°
4
90%
22:00
12°
998.6 hPa 47.1 mm 8.2°
4
91%
 08:36     17:22    Daglengte: 8:46 Dinsdag 17 Dec
01:00
12°
998.5 hPa 47.4 mm 8.2°
4
92%
04:00
12°
998.7 hPa 48.5 mm 9.0°
3
92%
07:00
11°
998.8 hPa 50.5 mm 9.6°
2
92%
10:00
12°
1000.4 hPa 50.8 mm 10.3°
1
92%
13:00
12°
1001.9 hPa 51.3 mm 10.9°
1
92%
16:00
12°
1002.6 hPa 51.6 mm 10.2°
2
92%
19:00
11°
1003.2 hPa 51.6 mm 9.5°
3
92%
22:00
10°
1005.1 hPa 51.6 mm 9.4°
3
91%
 08:36     17:22    Daglengte: 8:46 Woensdag 18 Dec
01:00
10°
Voelt als: 8.7°
1006.9 hPa 51.6 mm 9.3°
3
90%
04:00
10°
Voelt als: 8.7°
1009.1 hPa 51.6 mm 9.1°
2
89%
07:00
10°
Voelt als: 8.7°
1011.3 hPa 51.6 mm 8.9°
2
88%
10:00
10°
1013.1 hPa 51.6 mm 9.0°
3
64%
13:00
11°
1014.8 hPa 51.6 mm 9.1°
3
41%
16:00
Voelt als: 7.5°
1015.2 hPa   7.6°
3
22%
19:00
Voelt als: 4.9°
1015.6 hPa 103.2 mm 6.0°
3
3%
 08:37     17:23    Daglengte: 8:46 Donderdag 19 Dec
01:00
Voelt als: 3.5°
1015.0 hPa 103.2 mm 4.2°
1
92%
07:00
Voelt als: 3.3°
1010.4 hPa 103.2 mm 5.7°
3
92%
13:00
11°
1006.2 hPa 103.2 mm 7.8°
5
92%
19:00
10°
1004.3 hPa 103.2 mm 7.6°
2
92%
 08:37     17:23    Daglengte: 8:46 Vrijdag 20 Dec
01:00
Voelt als: 6.0°
1005.1 hPa 103.2 mm 6.7°
3
25%
07:00
Voelt als: 3.9°
1003.1 hPa 103.2 mm 5.0°
4
92%
13:00
10°
999.4 hPa 103.2 mm 7.7°
6
92%
19:00
10°
998.2 hPa 103.2 mm 8.7°
4
92%
 08:38     17:24    Daglengte: 8:46 Zaterdag 21 Dec
01:00
Voelt als: 7.6°
1010.0 hPa 103.2 mm 5.9°
3
1%
07:00
10°
1011.3 hPa 111.1 mm 8.7°
3
1%
13:00
13°
1015.0 hPa 0.6 mm 9.0°
3
47%
19:00
10°
Voelt als: 9.7°
1016.5 hPa 0.6 mm 8.4°
1
51%
 08:39     17:24    Daglengte: 8:45 Zondag 22 Dec
01:00
Voelt als: 8.4°
1018.6 hPa 0.4 mm 7.0°
1
54%
07:00
Voelt als: 7.1°
1018.7 hPa 0.3 mm 6.4°
1
42%
13:00
12°
1018.7 hPa 0.4 mm 7.8°
2
47%
19:00
1017.9 hPa 0.4 mm 7.5°
1
51%
 08:39     17:25    Daglengte: 8:46 Maandag 23 Dec
01:00
Voelt als: 7.6°
1017.7 hPa 0.6 mm 6.7°
1
63%
07:00
Voelt als: 6.8°
1016.8 hPa 0.7 mm 5.9°
1
64%
13:00
11°
1017.3 hPa 0.5 mm 6.8°
1
55%
19:00
Voelt als: 8.1°
1016.3 hPa 0.6 mm 6.4°
1
57%
 08:39     17:25    Daglengte: 8:46 Dinsdag 24 Dec
01:00
Voelt als: 5.5°
1016.1 hPa 0.4 mm 5.1°
2
53%
07:00
Voelt als: 5.1°
1015.3 hPa 0.5 mm 4.7°
2
57%
13:00
10°
1016.4 hPa 1.0 mm 6.0°
1
54%
19:00
Voelt als: 7.8°
1017.1 hPa 0.8 mm 6.0°
0
59%
 08:40     17:26    Daglengte: 8:46 Woensdag 25 Dec
01:00
Voelt als: 6.3°
1018.3 hPa 0.9 mm 5.0°
0
57%
07:00
1018.5 hPa 0.6 mm 4.3°
0
46%
13:00
10°
Voelt als: 9.7°
1018.7 hPa 0.4 mm 5.7°
1
47%
19:00
Voelt als: 7.7°
1017.8 hPa 0.5 mm 5.7°
1
60%
 08:40     17:27    Daglengte: 8:47 Donderdag 26 Dec
01:00
1018.2 hPa 0.9 mm 5.0°
0
56%
07:00
Voelt als: 5.3°
1018.2 hPa 1.0 mm 4.1°
0
53%
13:00
Voelt als: 9.0°
1019.0 hPa 1.0 mm 5.2°
1
47%
  CAPE Lifted Index Hail Supercell Tornado SRH 3km CL BTM PRES CL TOP PRES Swiss DWD icon SMHI TS
 08:31     17:21    Daglengte: 8:50 Vandaag
19:00 20 J/kg 2.7 K 0 % 0 % 0 % 0 m²/s² 0 0 3.18 80
20:00 39 J/kg 5.0 K 0 % 0 % 0 % 0 m²/s² 0 0 7.16 80
21:00 0 J/kg 7.3 K 0 % 0 % 0 % 0 m²/s² 0 0 9.73 2
22:00 50 J/kg 6.9 K 0 % 0 % 0 % 0 m²/s² 0 0 11.16 2
23:00 28 J/kg 6.8 K 0 % 0 % 0 % 0 m²/s² 0 0 11.78 2
 08:32     17:21    Daglengte: 8:49 Morgen
00:00 8 J/kg 7.1 K 0 % 0 % 0 % 0 m²/s² 0 0 10.07 2
01:00 32 J/kg 6.1 K 0 % 0 % 0 % 0 m²/s² 0 0 7.69 2
02:00 48 J/kg 5.6 K 0 % 0 % 0 % 0 m²/s² 0 0 7.73 2
03:00 34 J/kg 5.4 K 0 % 0 % 0 % 0 m²/s² 0 0 6.48 2
04:00 28 J/kg 4.4 K 0 % 0 % 0 % 0 m²/s² 0 0 4.82 3
05:00 0 J/kg 4.7 K 0 % 0 % 0 % 0 m²/s² 0 0 5.09 3
06:00 0 J/kg 3.3 K 0 % 0 % 0 % 0 m²/s² 0 0 3.69 80
07:00 29 J/kg 2.2 K 0 % 0 % 0 % 0 m²/s² 0 0 2.77 61
08:00 32 J/kg 1.9 K 0 % 0 % 0 % 0 m²/s² 0 0 2.35 61
09:00 19 J/kg 2.1 K 0 % 0 % 0 % 0 m²/s² 0 0 2.61 61
10:00 7 J/kg 2.6 K 0 % 0 % 0 % 0 m²/s² 0 0 3.65 61
11:00 79 J/kg 2.6 K 0 % 0 % 0 % 0 m²/s² 0 0 3.62 61
12:00 97 J/kg 2.5 K 0 % 0 % 0 % 0 m²/s² 0 0 3.28 3
13:00 83 J/kg 2.5 K 0 % 0 % 0 % 0 m²/s² 0 0 2.95 61
14:00 102 J/kg 2.1 K 0 % 0 % 0 % 0 m²/s² 0 0 2.43 61
15:00 82 J/kg 2.6 K 0 % 0 % 0 % 0 m²/s² 0 0 2.96 63
16:00 47 J/kg 3.5 K 0 % 0 % 0 % 0 m²/s² 0 0 3.71 63
17:00 2 J/kg 1.8 K 0 % 0 % 0 % 0 m²/s² 0 0 2.04 63
18:00 219 J/kg 0.9 K 0 % 0 % 0 % 0 m²/s² 0 0 1.44 63
19:00 157 J/kg 2.1 K 0 % 0 % 0 % 0 m²/s² 0 0 3 63
20:00 139 J/kg 2.2 K 0 % 0 % 0 % 0 m²/s² 0 0 3.61 61
21:00 104 J/kg 2.9 K 0 % 0 % 0 % 0 m²/s² 0 0 3.2 61
22:00 166 J/kg 1.9 K 0 % 0 % 0 % 0 m²/s² 0 0 2.23 3
23:00 121 J/kg 2.9 K 0 % 0 % 0 % 0 m²/s² 0 0 3.41 61
 08:33     17:21    Daglengte: 8:48 Vrijdag 13 Dec
00:00 110 J/kg 3.7 K 0 % 0 % 0 % 0 m²/s² 0 0 3.94 61
01:00 115 J/kg 3.5 K 0 % 0 % 0 % 0 m²/s² 0 0 3.74 61
02:00 111 J/kg 3.2 K 0 % 0 % 0 % 0 m²/s² 0 0 3.56 61
03:00 152 J/kg 1.9 K 0 % 0 % 0 % 0 m²/s² 0 0 2.2 61
04:00 98 J/kg 2.6 K 0 % 0 % 0 % 0 m²/s² 0 0 2.84 3
05:00 11 J/kg 4.2 K 0 % 0 % 0 % 0 m²/s² 0 0 4.92 80
06:00 104 J/kg 4.5 K 0 % 0 % 0 % 0 m²/s² 0 0 10.53 80
07:00 231 J/kg 3.7 K 0 % 0 % 0 % 0 m²/s² 0 0 8.89 80
08:00 96 J/kg 5.9 K 0 % 0 % 0 % 0 m²/s² 0 0 10.46 80
09:00 169 J/kg 5.8 K 0 % 0 % 0 % 0 m²/s² 0 0 6.61 80
10:00 125 J/kg 7.9 K 0 % 0 % 0 % 0 m²/s² 0 0 11.44 80
11:00 84 J/kg 8.6 K 0 % 0 % 0 % 0 m²/s² 0 0 14.57 3
12:00 184 J/kg 7.6 K 0 % 0 % 0 % 0 m²/s² 0 0 17.41 3
13:00 92 J/kg 9.7 K 0 % 0 % 0 % 0 m²/s² 0 0 19.63 80
14:00 69 J/kg 10.4 K 0 % 0 % 0 % 0 m²/s² 0 0 16.7 80
15:00 80 J/kg 10.4 K 0 % 0 % 0 % 0 m²/s² 0 0 14.96 61
16:00 49 J/kg 10.5 K 0 % 0 % 0 % 0 m²/s² 0 0 13.68 80
17:00 34 J/kg 9.5 K 0 % 0 % 0 % 0 m²/s² 0 0 10.97 61
18:00 14 J/kg 9.1 K 0 % 0 % 0 % 0 m²/s² 0 0 9.82 61
19:00 0 J/kg 5.3 K 0 % 0 % 0 % 0 m²/s² 0 0 5.51 61
20:00 6 J/kg 4.6 K 0 % 0 % 0 % 0 m²/s² 0 0 4.84 61
21:00 1 J/kg 3.5 K 0 % 0 % 0 % 0 m²/s² 0 0 3.62 61
22:00 18 J/kg 4.3 K 0 % 0 % 0 % 0 m²/s² 0 0 4.51 80
23:00 19 J/kg 5.2 K 0 % 0 % 0 % 0 m²/s² 0 0 5.71 80
 08:34     17:21    Daglengte: 8:47 Zaterdag 14 Dec
00:00 20 J/kg 4.9 K 0 % 0 % 0 % 0 m²/s² 0 0 5.5 80
01:00 8 J/kg 5.1 K 0 % 0 % 0 % 0 m²/s² 0 0 5.61 80
02:00 5 J/kg 4.8 K 0 % 0 % 0 % 0 m²/s² 0 0 5.91 80
03:00 5 J/kg 5.3 K 0 % 0 % 0 % 0 m²/s² 0 0 6.98 80
04:00 4 J/kg 5.6 K 0 % 0 % 0 % 0 m²/s² 0 0 9.11 61
05:00 6 J/kg 6.1 K 0 % 0 % 0 % 0 m²/s² 0 0 10.09 80
06:00 4 J/kg 6.0 K 0 % 0 % 0 % 0 m²/s² 0 0 12.09 80
07:00 7 J/kg 6.2 K 0 % 0 % 0 % 0 m²/s² 0 0 12.65 80
08:00 5 J/kg 6.1 K 0 % 0 % 0 % 0 m²/s² 0 0 13.45 80
09:00 4 J/kg 6.4 K 0 % 0 % 0 % 0 m²/s² 0 0 14.02 80
10:00 10 J/kg 6.2 K 0 % 0 % 0 % 0 m²/s² 0 0 14.09 80
11:00 22 J/kg 5.7 K 0 % 0 % 0 % 0 m²/s² 0 0 12.78 61
12:00 34 J/kg 5.5 K 0 % 0 % 0 % 0 m²/s² 0 0 11.92 61
13:00 22 J/kg 5.4 K 0 % 0 % 0 % 0 m²/s² 0 0 10.8 3
14:00 38 J/kg 5.0 K 0 % 0 % 0 % 0 m²/s² 0 0 9.86 3
15:00 25 J/kg 5.0 K 0 % 0 % 0 % 0 m²/s² 0 0 8.45 61
16:00 20 J/kg 4.9 K 0 % 0 % 0 % 0 m²/s² 0 0 8.08 63
17:00 14 J/kg 4.9 K 0 % 0 % 0 % 0 m²/s² 0 0 8.53 80
18:00 24 J/kg 4.6 K 0 % 0 % 0 % 0 m²/s² 0 0 7.54 3
Temp Baro Wind Neerslag
  EWN Forecast EWN WRFDA DWD ICON FMI HIRLAM MET Norway GFS
 08:31     17:21    Daglengte: 8:50 Vandaag
19:00 9.0° 1015.9 hPa 6.5 m/s 0.0 mm 9.0° 1013.4 hPa 8.2 m/s 10.1 mm 9.1° 1015.8 hPa 5.0 m/s -0.5 mm 10.0° 1014.9 hPa 6.3 m/s 0.0 mm 8.5° 1016.4 hPa 7.0 m/s 9.1° 1015.7 hPa 5.6 m/s
22:00 8.3° 1016.2 hPa 4.9 m/s 3.6 mm 8.5° 1013.3 hPa 4.5 m/s 30.7 mm 8.3° 1016.2 hPa 4.0 m/s 0.9 mm 8.2° 1016.3 hPa 4.4 m/s 0.0 mm 8.1° 1016.9 hPa 5.7 m/s 8.5° 1016.2 hPa 5.0 m/s
 08:32     17:21    Daglengte: 8:49 Morgen
01:00 7.8° 1016.0 hPa 3.5 m/s 0.0 mm 8.1° 1013.9 hPa 3.0 m/s 30.9 mm 7.6° 1016.4 hPa 2.4 m/s 0.1 mm 6.7° 1015.6 hPa 2.3 m/s 0.0 mm 8.5° 1016.2 hPa 4.2 m/s 7.7° 1016.5 hPa 3.8 m/s
04:00 7.7° 1014.5 hPa 2.7 m/s 0.0 mm 9.0° 1011.9 hPa 3.6 m/s 30.9 mm 7.7° 1015.6 hPa 1.5 m/s 0.0 mm 7.1° 1013.7 hPa 2.8 m/s 0.0 mm 8.1° 1014.7 hPa 2.6 m/s 8.0° 1014.5 hPa 3.1 m/s
07:00 8.1° 1012.5 hPa 3.2 m/s 3.8 mm 8.6° 1010.8 hPa 2.8 m/s 32.7 mm 8.0° 1013.1 hPa 1.7 m/s 0.7 mm 8.0° 1012.2 hPa 3.1 m/s 0.0 mm 8.4° 1012.6 hPa 3.6 m/s 8.5° 1013.0 hPa 2.0 m/s
10:00 8.8° 1010.6 hPa 4.0 m/s 7.4 mm 9.9° 1008.4 hPa 5.7 m/s 32.8 mm 8.7° 1012.1 hPa 2.6 m/s 2.1 mm 8.3° 1010.4 hPa 4.1 m/s 0.0 mm 9.4° 1010.6 hPa 4.2 m/s 8.9° 1010.5 hPa 3.2 m/s
13:00 10.3° 1006.4 hPa 5.6 m/s 4.3 mm 11.4° 1005.2 hPa 7.0 m/s 33.0 mm 10.3° 1007.3 hPa 3.5 m/s 1.0 mm 11.4° 1006.3 hPa 5.2 m/s 0.0 mm 10.1° 1006.3 hPa 7.9 m/s 10.8° 1007.6 hPa 4.3 m/s
16:00 10.3° 1000.5 hPa 8.8 m/s 12.8 mm 11.2° 998.5 hPa 8.7 m/s 41.6 mm 10.1° 1002.3 hPa 6.0 m/s 7.4 mm 11.7° 1000.6 hPa 9.8 m/s 0.0 mm 10.1° 999.3 hPa 9.4 m/s 10.6° 1000.7 hPa 7.7 m/s
19:00 12.5° 997.8 hPa 7.3 m/s 18.9 mm 12.8° 997.1 hPa 8.6 m/s 69.7 mm 10.0° 997.9 hPa 4.9 m/s 12.6 mm 13.9° 996.7 hPa 9.1 m/s 0.0 mm 12.3° 997.8 hPa 6.9 m/s 12.7° 999.0 hPa 6.8 m/s
22:00 12.8° 997.6 hPa 7.3 m/s 11.9 mm 12.9° 997.3 hPa 7.0 m/s 74.6 mm 12.6° 998.0 hPa 5.5 m/s 1.0 mm 14.4° 995.7 hPa 9.9 m/s 0.0 mm 12.7° 997.6 hPa 7.4 m/s 12.4° 999.2 hPa 5.6 m/s
 08:33     17:21    Daglengte: 8:48 Vrijdag 13 Dec
01:00 13.1° 996.4 hPa 8.9 m/s 12.9 mm 12.8° 997.2 hPa 9.0 m/s 76.3 mm 12.6° 997.2 hPa 5.8 m/s 1.3 mm 14.5° 994.2 hPa 12.3 m/s 0.0 mm 13.1° 995.9 hPa 9.1 m/s 12.8° 999.0 hPa 7.7 m/s
04:00 13.5° 994.3 hPa 10.1 m/s 13.1 mm 13.0° 994.8 hPa 8.9 m/s 77.8 mm 13.3° 996.5 hPa 8.4 m/s 1.7 mm 14.7° 991.8 hPa 13.2 m/s 0.0 mm 13.4° 993.5 hPa 9.9 m/s 13.1° 996.1 hPa 8.6 m/s
07:00 13.1° 995.1 hPa 11.4 m/s 15.0 mm 13.0° 994.2 hPa 11.0 m/s 80.6 mm 13.2° 996.6 hPa 8.9 m/s 2.8 mm 13.8° 993.1 hPa 13.7 m/s 0.0 mm 12.2° 995.0 hPa 11.3 m/s 13.2° 996.9 hPa 11.6 m/s
10:00 12.0° 998.8 hPa 10.2 m/s 16.5 mm 11.6° 997.0 hPa 11.0 m/s 85.8 mm 12.2° 1000.2 hPa 7.5 m/s 1.2 mm 12.3° 996.7 hPa 9.8 m/s 0.0 mm 10.9° 998.8 hPa 10.3 m/s 12.3° 1000.1 hPa 10.3 m/s
13:00 12.0° 1001.8 hPa 10.4 m/s 16.6 mm 12.0° 1000.2 hPa 12.4 m/s 99.1 mm 12.1° 1002.5 hPa 7.0 m/s 0.5 mm 12.4° 1000.1 hPa 13.8 m/s 0.0 mm 11.0° 1001.9 hPa 10.1 m/s 12.3° 1003.6 hPa 10.9 m/s
16:00 12.5° 1003.0 hPa 8.6 m/s 7.0 mm 11.7° 1003.2 hPa 10.8 m/s 100.0 mm 12.8° 1002.0 hPa 5.2 m/s 1.2 mm 12.6° 1003.0 hPa 8.9 m/s 11.2° 1006.4 hPa 7.9 m/s
19:00 12.0° 1003.8 hPa 6.5 m/s 16.3 mm 11.2° 1004.9 hPa 5.9 m/s 100.3 mm 13.7° 1003.1 hPa 8.7 m/s 1.9 mm 11.5° 1003.8 hPa 5.0 m/s 11.3° 1007.4 hPa 5.0 m/s
22:00 13.4° 1004.9 hPa 9.1 m/s 18.5 mm 12.5° 1005.5 hPa 6.8 m/s 107.5 mm 13.9° 1004.4 hPa 9.2 m/s 1.1 mm 13.4° 1004.8 hPa 9.1 m/s 13.2° 1007.6 hPa 7.4 m/s
 08:34     17:21    Daglengte: 8:47 Zaterdag 14 Dec
01:00 13.2° 1005.8 hPa 9.1 m/s 17.4 mm 13.1° 1006.5 hPa 8.6 m/s 111.7 mm 13.9° 1005.3 hPa 9.1 m/s 2.2 mm 12.9° 1005.7 hPa 9.0 m/s 13.5° 1008.8 hPa 8.0 m/s
04:00 13.4° 1006.9 hPa 9.5 m/s 18.7 mm 13.1° 1006.8 hPa 9.1 m/s 115.1 mm 13.8° 1007.2 hPa 7.7 m/s 3.6 mm 13.3° 1006.7 hPa 9.7 m/s 13.3° 1009.2 hPa 7.7 m/s
07:00 13.4° 1008.0 hPa 8.3 m/s 18.1 mm 13.0° 1007.8 hPa 7.9 m/s 116.3 mm 13.8° 1008.2 hPa 7.4 m/s 0.9 mm 13.4° 1007.6 hPa 9.5 m/s 13.4° 1010.5 hPa 6.7 m/s
10:00 13.1° 1009.8 hPa 7.0 m/s 24.3 mm 13.2° 1008.8 hPa 7.4 m/s 117.2 mm 13.8° 1009.8 hPa 6.0 m/s 1.1 mm 13.3° 1009.7 hPa 7.7 m/s 13.4° 1011.5 hPa 6.3 m/s
13:00 13.5° 1010.9 hPa 6.2 m/s 30.5 mm 13.9° 1009.1 hPa 7.9 m/s 117.5 mm 14.1° 1009.9 hPa 5.7 m/s 2.6 mm 13.2° 1011.7 hPa 5.9 m/s 13.9° 1011.5 hPa 6.8 m/s
16:00 13.3° 1010.6 hPa 5.8 m/s 42.7 mm 14.1° 1008.7 hPa 7.7 m/s 117.5 mm 13.3° 1009.5 hPa 5.5 m/s 5.3 mm 13.1° 1012.0 hPa 5.6 m/s 13.5° 1011.0 hPa 5.7 m/s
19:00 13.2° 1010.8 hPa 5.4 m/s 40.3 mm 13.5° 1008.8 hPa 6.3 m/s 117.6 mm 13.7° 1009.5 hPa 5.0 m/s 1.6 mm 12.9° 1012.2 hPa 5.3 m/s 12.4° 1010.9 hPa 4.1 m/s
22:00 12.3° 1011.3 hPa 4.3 m/s 41.2 mm 12.2° 1011.3 hPa 4.2 m/s 13.2° 1010.9 hPa 5.0 m/s 41.2 mm
 08:34     17:21    Daglengte: 8:47 Zondag 15 Dec
01:00 11.9° 1010.8 hPa 3.9 m/s 41.2 mm 11.9° 1010.9 hPa 3.7 m/s 12.3° 1010.2 hPa 5.7 m/s 41.2 mm
04:00 11.9° 1009.7 hPa 4.8 m/s 41.3 mm 11.8° 1009.6 hPa 4.8 m/s 13.1° 1010.3 hPa 4.9 m/s 41.3 mm
07:00 11.6° 1008.7 hPa 5.7 m/s 42.6 mm 11.6° 1008.4 hPa 5.8 m/s 12.0° 1011.5 hPa 4.2 m/s 42.6 mm
10:00 13.2° 1008.9 hPa 5.4 m/s 44.2 mm 13.4° 1008.5 hPa 5.6 m/s 11.3° 1013.7 hPa 3.1 m/s 44.2 mm
13:00 15.0° 1009.0 hPa 5.3 m/s 44.2 mm 15.2° 1008.6 hPa 5.4 m/s 12.5° 1013.6 hPa 3.7 m/s 44.2 mm
16:00 12.9° 1009.1 hPa 3.9 m/s 44.7 mm 13.0° 1008.8 hPa 4.0 m/s 11.6° 1012.5 hPa 3.0 m/s 44.7 mm
19:00 10.8° 1009.2 hPa 2.6 m/s 44.8 mm 10.8° 1008.9 hPa 2.6 m/s 11.3° 1012.3 hPa 2.4 m/s 44.8 mm
22:00 11.1° 1009.1 hPa 3.0 m/s 45.9 mm 11.2° 1008.8 hPa 3.0 m/s 10.9° 1011.5 hPa 2.0 m/s 45.9 mm
 08:35     17:22    Daglengte: 8:47 Maandag 16 Dec
01:00 11.4° 1008.9 hPa 3.4 m/s 46.9 mm 11.5° 1008.8 hPa 3.5 m/s 10.6° 1009.9 hPa 2.1 m/s 46.9 mm
04:00 10.9° 1007.1 hPa 3.5 m/s 46.9 mm 11.0° 1007.0 hPa 3.5 m/s 9.3° 1008.0 hPa 3.2 m/s 46.9 mm
07:00 10.4° 1005.4 hPa 3.5 m/s 46.9 mm 10.5° 1005.3 hPa 3.5 m/s 9.5° 1006.5 hPa 3.7 m/s 46.9 mm
10:00 11.8° 1003.1 hPa 4.2 m/s 47.0 mm 12.0° 1002.8 hPa 4.3 m/s 10.0° 1006.1 hPa 3.2 m/s 47.0 mm
13:00 13.3° 1000.7 hPa 5.0 m/s 47.0 mm 13.5° 1000.4 hPa 5.2 m/s 10.6° 1003.6 hPa 2.4 m/s 47.0 mm
16:00 12.9° 999.6 hPa 4.3 m/s 47.0 mm 13.1° 999.5 hPa 4.7 m/s 11.7° 1001.0 hPa 0.6 m/s 47.0 mm
19:00 12.4° 998.7 hPa 3.9 m/s 47.1 mm 12.6° 998.6 hPa 4.1 m/s 10.6° 999.7 hPa 1.9 m/s 47.1 mm
22:00 12.3° 998.6 hPa 3.8 m/s 47.1 mm 12.4° 998.4 hPa 3.9 m/s 10.3° 1000.3 hPa 3.1 m/s 47.1 mm
 08:36     17:22    Daglengte: 8:46 Dinsdag 17 Dec
01:00 12.2° 998.5 hPa 3.8 m/s 47.4 mm 12.3° 998.2 hPa 3.7 m/s 10.6° 1001.9 hPa 4.7 m/s 47.4 mm
04:00 11.6° 998.7 hPa 3.0 m/s 48.5 mm 11.8° 998.2 hPa 2.9 m/s 9.1° 1003.8 hPa 4.5 m/s 48.5 mm
07:00 11.1° 998.8 hPa 2.1 m/s 50.5 mm 11.3° 998.2 hPa 2.1 m/s 8.4° 1005.0 hPa 2.2 m/s 50.5 mm
10:00 11.6° 1000.4 hPa 1.5 m/s 50.8 mm 11.9° 999.7 hPa 1.6 m/s 8.6° 1008.1 hPa 0.9 m/s 50.8 mm
13:00 12.2° 1001.9 hPa 1.1 m/s 51.3 mm 12.4° 1001.2 hPa 1.0 m/s 10.4° 1010.0 hPa 2.2 m/s 51.3 mm
16:00 11.7° 1002.6 hPa 1.8 m/s 51.6 mm 11.8° 1001.8 hPa 1.8 m/s 10.6° 1011.6 hPa 2.3 m/s 51.6 mm
19:00 10.8° 1003.2 hPa 2.5 m/s 51.6 mm 11.1° 1002.3 hPa 2.6 m/s 7.7° 1013.7 hPa 1.4 m/s 51.6 mm
22:00 10.4° 1005.1 hPa 2.6 m/s 51.6 mm 10.7° 1004.1 hPa 2.7 m/s 6.9° 1016.1 hPa 1.8 m/s 51.6 mm
 08:36     17:22    Daglengte: 8:46 Woensdag 18 Dec
01:00 10.0° 1006.9 hPa 2.6 m/s 51.6 mm 10.3° 1005.9 hPa 2.7 m/s 6.5° 1017.4 hPa 2.0 m/s 51.6 mm
04:00 9.8° 1009.1 hPa 2.3 m/s 51.6 mm 10.2° 1008.2 hPa 2.4 m/s 5.7° 1018.5 hPa 1.7 m/s 51.6 mm
07:00 9.6° 1011.3 hPa 2.0 m/s 51.6 mm 10.0° 1010.5 hPa 2.0 m/s 4.9° 1019.8 hPa 1.7 m/s 51.6 mm
10:00 10.3° 1013.1 hPa 2.6 m/s 51.6 mm 10.8° 1012.4 hPa 2.6 m/s 5.8° 1021.4 hPa 2.3 m/s 51.6 mm
13:00 11.3° 1014.8 hPa 3.3 m/s 51.6 mm 11.5° 1014.2 hPa 3.3 m/s 9.2° 1021.5 hPa 2.7 m/s 51.6 mm
16:00 9.1° 1015.2 hPa 2.9 m/s 51.6 mm 9.1° 1014.7 hPa 2.9 m/s 9.5° 1020.8 hPa 2.7 m/s 51.6 mm
19:00 6.7° 1015.6 hPa 2.5 m/s 51.6 mm 6.7° 1015.1 hPa 2.5 m/s 6.6° 1021.1 hPa 2.6 m/s 51.6 mm
 08:37     17:23    Daglengte: 8:46 Donderdag 19 Dec
01:00 4.4° 1015.0 hPa 1.3 m/s 51.6 mm 4.3° 1014.4 hPa 1.2 m/s 5.4° 1021.4 hPa 2.9 m/s 51.6 mm
07:00 5.8° 1010.4 hPa 3.3 m/s 51.6 mm 5.9° 1009.6 hPa 3.3 m/s 5.3° 1018.9 hPa 3.3 m/s 51.6 mm
13:00 10.6° 1006.2 hPa 4.9 m/s 51.6 mm 10.7° 1005.1 hPa 5.0 m/s 9.8° 1018.0 hPa 3.6 m/s 51.6 mm
19:00 10.0° 1004.3 hPa 2.1 m/s 51.6 mm 10.2° 1003.3 hPa 2.1 m/s 8.3° 1015.4 hPa 2.6 m/s 51.6 mm
 08:37     17:23    Daglengte: 8:46 Vrijdag 20 Dec
01:00 7.8° 1005.1 hPa 2.8 m/s 51.6 mm 7.8° 1004.2 hPa 2.7 m/s 7.7° 1014.5 hPa 3.7 m/s 51.6 mm
07:00 6.8° 1003.1 hPa 4.4 m/s 51.6 mm 6.8° 1002.1 hPa 4.5 m/s 6.7° 1014.2 hPa 2.9 m/s 51.6 mm
13:00 10.0° 999.4 hPa 6.2 m/s 51.6 mm 9.9° 998.1 hPa 6.5 m/s 11.7° 1013.5 hPa 3.0 m/s 51.6 mm
19:00 10.4° 998.2 hPa 4.1 m/s 51.6 mm 10.4° 997.1 hPa 4.1 m/s 10.3° 1010.4 hPa 3.7 m/s 51.6 mm
 08:38     17:24    Daglengte: 8:46 Zaterdag 21 Dec
01:00 9.4° 1010.0 hPa 3.2 m/s 51.6 mm 9.4° 1010.0 hPa 3.2 m/s 51.6 mm
07:00 10.1° 1011.3 hPa 2.7 m/s 57.0 mm 10.1° 1011.3 hPa 2.7 m/s 57.0 mm
13:00 12.7° 1015.0 hPa 2.7 m/s 0.6 mm
19:00 10.0° 1016.5 hPa 1.4 m/s 0.6 mm
 08:39     17:24    Daglengte: 8:45 Zondag 22 Dec
01:00 8.4° 1018.6 hPa 1.0 m/s 0.4 mm
07:00 7.5° 1018.7 hPa 1.2 m/s 0.3 mm
13:00 11.5° 1018.7 hPa 1.5 m/s 0.4 mm
19:00 8.8° 1017.9 hPa 1.0 m/s 0.4 mm
 08:39     17:25    Daglengte: 8:46 Maandag 23 Dec
01:00 7.8° 1017.7 hPa 1.1 m/s 0.6 mm
07:00 7.0° 1016.8 hPa 1.1 m/s 0.7 mm
13:00 10.6° 1017.3 hPa 1.2 m/s 0.5 mm
19:00 8.2° 1016.3 hPa 1.1 m/s 0.6 mm
 08:39     17:25    Daglengte: 8:46 Dinsdag 24 Dec
01:00 6.7° 1016.1 hPa 1.8 m/s 0.4 mm
07:00 6.1° 1015.3 hPa 1.6 m/s 0.5 mm
13:00 10.0° 1016.4 hPa 1.0 m/s 1.0 mm
19:00 7.8° 1017.1 hPa 0.4 m/s 0.8 mm
 08:40     17:26    Daglengte: 8:46 Woensdag 25 Dec
01:00 6.3° 1018.3 hPa 0.5 m/s 0.9 mm
07:00 5.6° 1018.5 hPa 0.2 m/s 0.6 mm
13:00 9.7° 1018.7 hPa 0.7 m/s 0.4 mm
19:00 7.7° 1017.8 hPa 0.8 m/s 0.5 mm
 08:40     17:27    Daglengte: 8:47 Donderdag 26 Dec
01:00 6.4° 1018.2 hPa 0.3 m/s 0.9 mm
07:00 5.3° 1018.2 hPa 0.3 m/s 1.0 mm
13:00 9.0° 1019.0 hPa 0.7 m/s 1.0 mm
FMI Hirlam - 7.5 km EWN WRFDA - 12 km DWD ICON - 7 km GFS - 25 km Basiskaart






























































Updatetijd (Europe/Amsterdam) Resolutie Lengte Stap
FMI Hirlam 18:00, 00:00, 06:00, 12:00 7.5 km 49h 1h
EWN WRFDA 14:30, 20:30, 02:30, 08:30 12 km 73h 1h
DWD ICON 10:45, 16:45, 22:45, 04:45 7 km 75h 1h
GFS 13:30, 19:30, 01:30, 07:30 25 km 237h 3h
30+ mm
25-30 mm
20-25 mm
15-20 mm
10-15 mm
6-10 mm
4-6 mm
2-4 mm
1-2 mm
0.5-1 mm
0.2-0.5 mm
0.1-0.2 mm
30+ mm
25-30 mm
20-25 mm
15-20 mm
10-15 mm
6-10 mm
4-6 mm
2-4 mm
1-2 mm
0.5-1 mm
0.2-0.5 mm
0.1-0.2 mm
Sneeuwval
Natte sneeuw
Hagel
Vorst
30+ mm
25-30 mm
20-25 mm
15-20 mm
10-15 mm
6-10 mm
4-6 mm
2-4 mm
1-2 mm
0.5-1 mm
0.2-0.5 mm
0.1-0.2 mm
Sneeuwval
Natte sneeuw
Hagel
Vorst
Onweer
50 mm
40 mm
30 mm
26 mm
22 mm
18 mm
14 mm
10 mm
9 mm
8 mm
7 mm
6 mm
5 mm
4.5 mm
4 mm
3.5 mm
3 mm
2.5 mm
2 mm
1.5 mm
1 mm
0.8 mm
0.6 mm
0.4 mm
0.2 mm
0.05 mm
35°
30°
25°
20°
15°
10°
-5°
-10°
-15°
-20°
-25°
-30°
-35°
120> km/h
105 km/h
90 km/h
75 km/h
60 km/h
50 km/h
40 km/h
30 km/h
20 km/h
10 km/h
0 km/h
2600 J/kg
2400 J/kg
2200 J/kg
2000 J/kg
1800 J/kg
1600 J/kg
1400 J/kg
1200 J/kg
1000 J/kg
800 J/kg
600 J/kg
400 J/kg
200 J/kg
70 dBZ
65 dBZ
60 dBZ
55 dBZ
50 dBZ
45 dBZ
40 dBZ
35 dBZ
30 dBZ
25 dBZ
20 dBZ
15 dBZ
10 dBZ
5 dBZ
-1 K
-2 K
-3 K
-4 K
-5 K
-6 K
-7 K
-8 K
-9 K
950 m²/s²
900 m²/s²
850 m²/s²
800 m²/s²
750 m²/s²
700 m²/s²
650 m²/s²
600 m²/s²
550 m²/s²
500 m²/s²
450 m²/s²
400 m²/s²
350 m²/s²
300 m²/s²
250 m²/s²
200 m²/s²
150 m²/s²
100 m²/s²
46 m/s
44 m/s
42 m/s
40 m/s
38 m/s
36 m/s
34 m/s
32 m/s
30 m/s
28 m/s
26 m/s
24 m/s
22 m/s
20 m/s
16 m/s
12 m/s
8 m/s
4 m/s
30 m/s
28 m/s
26 m/s
24 m/s
22 m/s
20 m/s
18 m/s
16 m/s
14 m/s
12 m/s
10 m/s
8 m/s
6 m/s
4 m/s
2 m/s
3.0
2.8
2.6
2.4
2.2
2.0
1.8
1.6
1.4
1.2
1.0
0.8
0.6
0.4
0.2
15
14
13
12
11
10
9
8
7
6
5
4
3
2
1
90%
80%
70%
60%
50%
40%
30%
20%
10%
42
40
38
36
34
32
30
28
26
24
22
20
18
16
14
12
90+ cm
80-90 cm
70-80 cm
60-70 cm
50-60 cm
40-50 cm
30-40 cm
20-30 cm
10-20 cm
1-10 cm
Sneeuwval
Natte sneeuw
Regen
>120 mm
115 mm
110 mm
105 mm
100 mm
95 mm
90 mm
85 mm
80 mm
75 mm
70 mm
65 mm
60 mm
55 mm
50 mm
45 mm
45 mm
40 mm
35 mm
30 mm
25 mm
20 mm
15 mm
10 mm
5 mm
0.1 mm
960 hPa
880 hPa
800 hPa
720 hPa
640 hPa
560 hPa
584 gpdm
568 gpdm
552 gpdm
536 gpdm
520 gpdm
504 gpdm
488 gpdm
Extreem zwaar Noodweer Kans op onweer
15% 15% 5% 50% 15%

Dag